Flag for Canada Weather past 2 weeks in Yarmouth County, Nova Scotia, Canada

Now
30 °F

Mostly cloudy.


Feels Like: 20 °F
Forecast: 19 / 30 °F
Wind: 14 mph from South

Location: Yarmouth

Current Time: Mar 1, 2015 at 3:34:52 PM

Latest Report: Mar 1, 2015 at 3:00 PM


Visibility: 15 mi

Pressure: 30.52 "Hg

Humidity: 69%

Dew point: 21 °F

Location of Yarmouth CountyLocation

Historic Weather in Yarmouth County — Graph

°F

Yarmouth County temperature yesterday

Maximum temperature yesterday: 25 °F (at 2:00 PM)
Minimum temperature yesterday: 12 °F (at 7:00 AM)
Average temperature yesterday: 21 °F

Past Weeks' High & Low Weather Summary

 TemperatureHumidityPressure
High41 °F (Feb 22, 8:00 AM)100% (Feb 15, 5:00 AM)30.68 "Hg (Feb 15, 5:00 AM)
Low1 °F (Feb 24, 12:52 AM)50% (Feb 28, 2:00 AM)28.94 "Hg (Feb 15, 2:00 PM)
Average21 °F78%29.94 "Hg
* Reported Feb 14 2:00 PM — Mar 1 2:00 PM, Yarmouth County, Weather by CustomWeather, © 2015

Note: Actual official high and low records may vary slightly from our data, if they occured in-between our weather recording intervals... More about our weather records

Advertising

Yarmouth County weather history for previous 24 hours

 ConditionsComfort  
Time TempWeatherWind HumidityBarometerVisibility
2:00 PM
Sun, Mar 1
30 °FOvercast.13 mph64%30.55 "Hg15 mi
1:00 PM30 °FOvercast.9 mph59%30.60 "Hg15 mi
12:00 PM28 °FOvercast.8 mph59%30.63 "Hg15 mi
11:00 AM27 °FPartly sunny.6 mph59%30.64 "Hg15 mi
10:00 AM25 °FPartly sunny.6 mph59%30.66 "Hg15 mi
9:00 AM19 °FPartly sunny.5 mph73%30.66 "Hg15 mi
8:00 AM14 °FPassing clouds.6 mph85%30.68 "Hg15 mi
7:00 AM12 °FPassing clouds.6 mph85%30.67 "Hg15 mi
6:00 AM18 °FPassing clouds.6 mph79%30.68 "Hg15 mi
5:00 AM21 °FClear.6 mph74%30.67 "Hg15 mi
4:00 AM25 °FClear.5 mph63%30.65 "Hg15 mi
3:00 AM25 °FPassing clouds.7 mph69%30.66 "Hg15 mi
2:00 AM25 °FPassing clouds.6 mph69%30.66 "Hg15 mi
1:00 AM25 °FPassing clouds.10 mph74%30.66 "Hg15 mi
12:00 AM25 °FPassing clouds.13 mph74%30.66 "Hg15 mi
11:00 PM
Sat, Feb 28
25 °FClear.12 mph69%30.66 "Hg15 mi
10:00 PM23 °FPassing clouds.10 mph74%30.66 "Hg15 mi
9:00 PM23 °FPassing clouds.9 mph68%30.66 "Hg15 mi
8:00 PM23 °FClear.10 mph63%30.66 "Hg15 mi
7:00 PM21 °FClear.9 mph68%30.66 "Hg15 mi
6:00 PM23 °FPassing clouds.10 mph58%30.65 "Hg15 mi
5:00 PM25 °FPassing clouds.12 mph63%30.65 "Hg15 mi
4:00 PM25 °FPassing clouds.15 mph59%30.65 "Hg15 mi
3:00 PM23 °FPassing clouds.12 mph63%30.65 "Hg15 mi
Weather by CustomWeather, © 2015

See weather overviewHow to use our weather pages